Location: Central Coast
(33.3208°S, 151.2336°E)
Time: 18:58:39
(UTC+11:00)

Vanguard 2 Rocket - All Passes

Search period start: 17 October 2017 00:00
Search period end: 27 October 2017 00:00
Orbit: 555 x 3327 km, 32.9° (Epoch: 16 October)

Date Brightness Start Highest point End Pass type
(mag) Time Alt. Az. Time Alt. Az. Time Alt. Az.
17 Oct - 01:11:09 10° WNW 01:28:46 69° NNE 01:39:05 10° E visible
17 Oct - 03:30:39 10° W 03:44:25 88° N 03:51:49 10° E visible
17 Oct - 05:49:26 10° W 05:58:31 64° NNW 06:03:47 10° ENE visible
17 Oct - 08:07:35 10° WNW 08:10:32 14° NW 08:13:01 10° N daylight
17 Oct - 21:54:45 10° NNW 22:10:47 31° NE 22:23:47 10° E visible
18 Oct - 00:09:07 10° NW 00:27:47 60° NNE 00:39:41 10° E visible
18 Oct - 02:28:03 10° WNW 02:44:07 85° N 02:52:56 10° E visible
18 Oct - 04:47:41 10° W 04:59:03 79° NNW 05:05:17 10° ENE visible
18 Oct - 07:05:47 10° W 07:11:51 28° NW 07:16:00 10° NNE daylight
18 Oct - 20:55:48 10° N 21:09:28 23° NE 21:21:45 10° E visible
18 Oct - 23:07:39 10° NW 23:26:31 51° NNE 23:39:52 10° E visible
19 Oct - 01:25:25 10° WNW 01:43:26 80° NNE 01:53:51 10° E visible
19 Oct - 03:45:26 10° W 03:59:11 87° N 04:06:36 10° E visible
19 Oct - 06:04:15 10° W 06:12:56 46° NNW 06:18:08 10° NE daylight
19 Oct - 19:58:56 10° NNE 20:08:16 15° NE 20:17:20 10° ENE visible
19 Oct - 22:06:54 10° NNW 22:25:03 42° NNE 22:39:29 10° E visible
20 Oct - 00:23:01 10° WNW 00:42:21 72° NNE 00:54:30 10° E visible
20 Oct - 02:42:47 10° W 02:58:53 89° N 03:07:43 10° E visible
20 Oct - 05:02:26 10° W 05:13:39 65° NNW 05:19:52 10° ENE visible
20 Oct - 07:21:31 10° W 07:25:49 17° NW 07:29:10 10° N daylight
20 Oct - 21:07:03 10° NNW 21:23:37 33° NE 21:38:18 10° E visible
20 Oct - 23:21:07 10° NW 23:40:56 64° NNE 23:54:47 10° E visible
21 Oct - 01:40:00 10° W 01:58:09 87° N 02:08:37 10° E visible
21 Oct - 04:00:11 10° W 04:13:54 79° NNW 04:21:18 10° ENE visible
21 Oct - 06:19:17 10° W 06:27:05 31° NW 06:32:05 10° NNE daylight
21 Oct - 20:08:21 10° N 20:22:19 24° NE 20:35:53 10° E visible
21 Oct - 22:19:53 10° NW 22:39:20 54° NNE 22:54:37 10° E visible
22 Oct - 00:37:20 10° WNW 00:56:59 82° NNE 01:09:16 10° E visible
22 Oct - 02:57:34 10° W 03:13:40 87° N 03:22:28 10° E visible
22 Oct - 05:17:13 10° W 05:28:01 49° NNW 05:34:11 10° NE visible
22 Oct - 19:11:36 10° NNE 19:21:16 16° NE 19:31:11 10° ENE daylight
22 Oct - 21:19:27 10° NNW 21:37:42 44° NE 21:53:51 10° E visible
22 Oct - 23:35:07 10° WNW 23:55:27 75° NNE 00:09:34 10° E visible
23 Oct - 01:54:44 10° W 02:12:55 89° N 02:23:23 10° E visible
23 Oct - 04:14:56 10° W 04:28:27 66° NNW 04:35:51 10° ENE visible
23 Oct - 06:34:53 10° W 06:40:57 20° NW 06:45:19 10° N daylight
23 Oct - 20:19:56 10° NNW 20:36:14 35° NE 20:52:14 10° E visible
23 Oct - 22:33:30 10° NW 22:53:40 66° NNE 23:09:30 10° E visible
24 Oct - 00:51:57 10° W 01:11:42 87° N 01:24:01 10° E visible
24 Oct - 03:12:20 10° W 03:28:21 79° NNW 03:37:09 10° ENE visible
24 Oct - 05:32:13 10° W 05:42:04 35° NW 05:48:06 10° NNE visible
24 Oct - 19:21:32 10° N 19:35:04 25° NE 19:49:23 10° E visible
24 Oct - 21:32:37 10° NW 21:51:50 56° NNE 22:08:55 10° ESE visible
24 Oct - 23:49:29 10° WNW 00:10:04 83° NNE 00:24:19 10° E visible
25 Oct - 02:09:31 10° W 02:27:41 86° N 02:38:08 10° E visible
25 Oct - 04:29:42 10° WSW 04:42:44 52° NNW 04:50:08 10° NE visible
25 Oct - 06:52:32 10° WNW 06:54:35 11° NW 06:56:26 10° NW daylight
25 Oct - 18:25:02 10° NNE 18:34:15 16° NE 18:44:16 10° E daylight
25 Oct - 20:32:34 10° NNW 20:50:08 46° NE 21:07:42 10° E visible
25 Oct - 22:47:34 10° WNW 23:08:08 77° NNE 23:24:15 10° E visible
26 Oct - 01:06:41 10° W 01:26:29 89° N 01:38:47 10° E visible
26 Oct - 03:27:03 10° WSW 03:42:51 67° NNW 03:51:40 10° ENE visible
26 Oct - 05:47:44 10° W 05:55:50 23° NW 06:01:22 10° N daylight
26 Oct - 19:33:23 10° NNW 19:48:46 36° NE 20:05:38 10° E visible
26 Oct - 21:46:21 10° NW 22:06:04 68° NNE 22:23:45 10° ESE visible
